User: anonymous   Login
Location: Unspecified
(0.0000°N, 0.0000°E)
Time: 07:58:20
(UTC+02:00)
Language:

ARIANE 5 R/B - Orbit

View from above orbital plane
View from above orbital plane
View from above satellite
View from above satellite

Ground track
Ground track

The orbit data is extracted from the following two-line orbital elements,

1 27510U 02040C   15243.11853883 -.00000077  00000-0  54792-4 0  9999
2 27510 005.1593 099.1445 7163153 198.0413 077.5705 02.27186854107983
Epoch (UTC): 31 August 2015 02:50:41
Eccentricity: 0.7163153
inclination: 5.1593°
perigee height: 556 km
apogee height: 35572 km
right ascension of ascending node: 99.1445°
argument of perigee: 198.0413°
revolutions per day: 2.27186854
mean anomaly at epoch: 77.5705°
orbit number at epoch: 10798

The dashed part of the orbit path shows where the satellite is in the earth's shadow,  

DLR